Weather History for LEZL - November, 2012

Change the Weather History Date:

Wednesday, November 21, 2012

  Actual Average Record
Temperature  
Mean Temperature 58 °F -  
Max Temperature 60 °F 62 °F 75 °F (2014)
Min Temperature 55 °F 45 °F 32 °F (1999)
Degree Days  
Heating Degree Days 8    
Growing Degree Days 8 (Base 50)    
Moisture  
Dew Point 56 °F    
Average Humidity 93    
Maximum Humidity 100    
Minimum Humidity 88    
Precipitation  
Precipitation 0.00 in - - ()
Sea Level Pressure  
Sea Level Pressure 30.08 in    
Wind  
Wind Speed 3 mph ()    
Max Wind Speed 9 mph    
Max Gust Speed -    
Visibility 5.6 miles    
Events Rain    
Averages and records for this station are not official NWS values.
T = Trace of Precipitation, MM = Missing Value Source: Averaged Metar Reports

Daily Weather History Graph

Daily Weather History Graph

Search for Another Location

Airport or City:

Trip Planner

Search our weather history database for the weather conditions in past years. The results will help you decide how hot, cold, wet, or windy it might be!

Date:

Astronomy

Nov. 21, 2012 Rise Set
Actual Time 8:09 AM CET 6:09 PM CET
Civil Twilight 7:41 AM CET 6:37 PM CET
Nautical Twilight 7:09 AM CET 7:09 PM CET
Astronomical Twilight 6:38 AM CET 7:40 PM CET
Moon 2:11 PM CET (11/21) 1:22 AM CET (11/21)
Length of Visible Light 10h 56m
Length of Day
9h 59m
First Quarter, 59% of the Moon is Illuminated
Nov 21
First Quarter
Nov 28
Full
Dec 6
Last Quarter
Dec 13
New
Dec 20
First Quarter

Hourly Weather History & Observations

Time (CET) Temp. Dew Point Humidity Pressure Visibility Wind Dir Wind Speed Gust Speed Precip Events Conditions
12:00 AM 57.2 °F 53.6 °F 88% 30.06 in 6.2 mi SSE 2.3 mph - N/A   Scattered Clouds
12:30 AM 55.4 °F 53.6 °F 94% 30.06 in 6.2 mi South 2.3 mph - N/A   Scattered Clouds
1:00 AM 55.4 °F 53.6 °F 94% 30.06 in 6.2 mi SSE 3.5 mph - N/A   Scattered Clouds
4:30 AM 57.2 °F 53.6 °F 88% 30.06 in 6.2 mi South 2.3 mph - N/A   Scattered Clouds
5:00 AM 57.2 °F 53.6 °F 88% 30.04 in 6.2 mi Calm Calm - N/A   Scattered Clouds
5:30 AM 57.2 °F 53.6 °F 88% 30.06 in 6.2 mi Calm Calm - N/A   Scattered Clouds
6:00 AM 57.2 °F 53.6 °F 88% 30.06 in 5.0 mi NNE 2.3 mph - N/A   Scattered Clouds
6:30 AM 57.2 °F 55.4 °F 94% 30.06 in 5.0 mi Variable 1.2 mph - N/A   Scattered Clouds
7:00 AM 57.2 °F 55.4 °F 94% 30.06 in 6.2 mi ENE 1.2 mph - N/A   Scattered Clouds
7:30 AM 57.2 °F 55.4 °F 94% 30.06 in 6.2 mi Calm Calm - N/A   Scattered Clouds
8:00 AM 57.2 °F 53.6 °F 88% 30.06 in 6.2 mi Calm Calm - N/A   Mostly Cloudy
8:30 AM 57.2 °F 55.4 °F 94% 30.06 in 6.2 mi Variable 2.3 mph - N/A   Scattered Clouds
9:00 AM 57.2 °F 55.4 °F 94% 30.09 in 6.2 mi North 2.3 mph - N/A   Scattered Clouds
9:30 AM 57.2 °F 55.4 °F 94% 30.09 in 6.2 mi NNE 3.5 mph - N/A   Scattered Clouds
10:00 AM 59.0 °F 55.4 °F 88% 30.09 in 6.2 mi NE 2.3 mph - N/A Rain Light Rain
10:30 AM 59.0 °F 55.4 °F 88% 30.09 in 3.1 mi Variable 2.3 mph - N/A Rain Rain
11:00 AM 59.0 °F 55.4 °F 88% 30.09 in 3.7 mi NNE 2.3 mph - N/A Rain Light Rain
11:30 AM 59.0 °F 57.2 °F 94% 30.12 in 4.3 mi NNE 2.3 mph - N/A Rain Light Rain
12:00 PM 59.0 °F 57.2 °F 94% 30.09 in 5.6 mi NE 4.6 mph - N/A   Overcast
12:13 PM 59.0 °F 57.2 °F 94% 30.09 in 1.6 mi NE 3.5 mph - N/A Rain Rain
12:30 PM 59.0 °F 57.2 °F 94% 30.09 in 2.5 mi NNE 4.6 mph - N/A Rain Light Rain
1:00 PM 59.0 °F 57.2 °F 94% 30.09 in 2.5 mi NE 6.9 mph - N/A   Drizzle
1:30 PM 59.0 °F 57.2 °F 94% 30.06 in 5.0 mi NE 9.2 mph - N/A   Mostly Cloudy
2:00 PM 59.0 °F 57.2 °F 94% 30.06 in 5.0 mi NE 8.1 mph - N/A   Mostly Cloudy
2:30 PM 60.8 °F 57.2 °F 88% 30.06 in 5.0 mi NNE 8.1 mph - N/A   Mostly Cloudy
3:00 PM 59.0 °F 57.2 °F 94% 30.06 in 6.2 mi NNE 6.9 mph - N/A   Mostly Cloudy
3:30 PM 59.0 °F 57.2 °F 94% 30.06 in 6.2 mi North 8.1 mph - N/A   Mostly Cloudy
4:00 PM 59.0 °F 57.2 °F 94% 30.06 in 6.2 mi North 8.1 mph - N/A   Overcast
4:30 PM 59.0 °F 55.4 °F 88% 30.06 in 6.2 mi North 6.9 mph - N/A   Overcast
5:00 PM 57.2 °F 57.2 °F 100% 30.06 in 6.2 mi North 6.9 mph - N/A   Overcast
5:30 PM 59.0 °F 57.2 °F 94% 30.06 in 6.2 mi NNE 5.8 mph - N/A   Overcast
6:00 PM 57.2 °F 57.2 °F 100% 30.06 in 6.2 mi NNE 6.9 mph - N/A   Overcast
6:30 PM 59.0 °F 57.2 °F 94% 30.09 in 6.2 mi NNE 5.8 mph - N/A   Overcast
7:00 PM 59.0 °F 57.2 °F 94% 30.09 in 6.2 mi NNE 3.5 mph - N/A   Overcast
7:30 PM 59.0 °F 57.2 °F 94% 30.09 in 6.2 mi Variable 2.3 mph - N/A   Overcast
8:00 PM 59.0 °F 57.2 °F 94% 30.09 in 6.2 mi NNE 3.5 mph - N/A   Overcast
8:30 PM 59.0 °F 57.2 °F 94% 30.09 in 6.2 mi Variable 2.3 mph - N/A   Overcast
9:00 PM 57.2 °F 55.4 °F 94% 30.09 in 6.2 mi North 3.5 mph - N/A   Overcast
9:30 PM 57.2 °F 55.4 °F 94% 30.09 in 6.2 mi Calm Calm - N/A   Overcast
10:00 PM 57.2 °F 55.4 °F 94% 30.09 in 6.2 mi NNE 3.5 mph - N/A   Overcast
10:30 PM 57.2 °F 55.4 °F 94% 30.09 in 6.2 mi NE 1.2 mph - N/A   Overcast
11:00 PM 57.2 °F 55.4 °F 94% 30.12 in 6.2 mi NE 2.3 mph - N/A   Scattered Clouds
11:30 PM 57.2 °F 55.4 °F 94% 30.12 in 6.2 mi NE 2.3 mph - N/A   Scattered Clouds